DLA7TT ELLX-EDDF

Flight info

Callsign DLA7TT
Flight time 0h 32m
Altitude 21000
Route ASMOX Y891 LULAT Y890 KULZO T847 IMCOM IMCOM1A
Aircraft E190/M-SDE2E3GIJ1RWY/LB1

Departure

Time 2026-04-17 12:44
Airport Luxembourg-Findel International Airport (ELLX)

Arrival

Time 2026-04-17 13:16
Airport Frankfurt Main Airport (EDDF)
Time Latitude Longitude Altitude Speed Heading
2026-04-17 11:54 49.63234 6.21316 1228 ft 0 kts 60°
2026-04-17 12:37 49.63232 6.21230 1229 ft 0 kts 150°
2026-04-17 12:39 49.63232 6.21231 1229 ft 1 kts 150°
2026-04-17 12:39 49.63220 6.21242 1230 ft 2 kts 150°
2026-04-17 12:39 49.63217 6.21244 1230 ft 0 kts 150°
2026-04-17 12:40 49.63209 6.21251 1230 ft 3 kts 150°
2026-04-17 12:40 49.63169 6.21287 1230 ft 10 kts 151°
2026-04-17 12:40 49.63099 6.21347 1230 ft 13 kts 151°
2026-04-17 12:41 49.63027 6.21420 1227 ft 12 kts 125°
2026-04-17 12:41 49.63047 6.21552 1225 ft 14 kts 64°
2026-04-17 12:41 49.63094 6.21702 1224 ft 17 kts 64°
2026-04-17 12:41 49.63122 6.21792 1224 ft 7 kts 65°
2026-04-17 12:42 49.63145 6.21869 1225 ft 8 kts 64°
2026-04-17 12:42 49.63170 6.21949 1226 ft 8 kts 64°
2026-04-17 12:42 49.63164 6.22031 1225 ft 10 kts 138°
2026-04-17 12:42 49.63084 6.22104 1216 ft 16 kts 150°
2026-04-17 12:43 49.63005 6.22121 1212 ft 9 kts 237°
2026-04-17 12:43 49.62995 6.22094 1212 ft 0 kts 240°
2026-04-17 12:43 49.62944 6.21958 1214 ft 44 kts 240°
2026-04-17 12:43 49.62678 6.21239 1232 ft 107 kts 240°
2026-04-17 12:44 49.62214 6.19998 1307 ft 151 kts 240°
2026-04-17 12:44 49.61681 6.18573 1950 ft 157 kts 240°
2026-04-17 12:44 49.61114 6.17120 2739 ft 156 kts 238°
2026-04-17 12:44 49.60524 6.15704 3473 ft 157 kts 238°
2026-04-17 12:45 49.59954 6.14262 4160 ft 161 kts 239°
2026-04-17 12:45 49.59358 6.12674 4618 ft 177 kts 240°
2026-04-17 12:45 49.58731 6.10991 5191 ft 186 kts 239°
2026-04-17 12:45 49.58069 6.09170 5657 ft 204 kts 240°
2026-04-17 12:46 49.57326 6.07134 6049 ft 228 kts 239°
2026-04-17 12:46 49.56624 6.04837 6582 ft 247 kts 254°
2026-04-17 12:46 49.56569 6.02107 7096 ft 267 kts 281°
2026-04-17 12:46 49.57385 5.99477 7711 ft 280 kts 308°
2026-04-17 12:47 49.58914 5.97583 8454 ft 288 kts 333°
2026-04-17 12:47 49.60831 5.96823 9200 ft 293 kts 358°
2026-04-17 12:47 49.62825 5.97450 9939 ft 296 kts 25°
2026-04-17 12:47 49.64650 5.99005 10546 ft 308 kts 32°
2026-04-17 12:48 49.66487 6.00885 10907 ft 325 kts 33°
2026-04-17 12:48 49.68422 6.02867 11235 ft 343 kts 33°
2026-04-17 12:48 49.70416 6.04995 11760 ft 351 kts 34°
2026-04-17 12:48 49.72429 6.07152 12443 ft 353 kts 33°
2026-04-17 12:49 49.74464 6.09304 13130 ft 356 kts 33°
2026-04-17 12:49 49.76592 6.11321 13754 ft 359 kts 28°
2026-04-17 12:49 49.78786 6.13219 14378 ft 363 kts 28°
2026-04-17 12:49 49.80992 6.15185 14960 ft 367 kts 29°
2026-04-17 12:50 49.83201 6.17202 15555 ft 371 kts 29°
2026-04-17 12:50 49.85428 6.19251 16142 ft 374 kts 30°
2026-04-17 12:50 49.87648 6.21304 16695 ft 378 kts 30°
2026-04-17 12:50 49.89937 6.23450 17262 ft 381 kts 32°
2026-04-17 12:51 49.91837 6.26252 17780 ft 387 kts 54°
2026-04-17 12:51 49.92956 6.30048 18307 ft 391 kts 77°
2026-04-17 12:51 49.93380 6.34221 18879 ft 393 kts 83°
2026-04-17 12:51 49.93776 6.38453 19429 ft 397 kts 81°
2026-04-17 12:52 49.94282 6.42685 19983 ft 400 kts 78°
2026-04-17 12:52 49.94847 6.46934 20526 ft 403 kts 78°
2026-04-17 12:52 49.95431 6.51208 21040 ft 406 kts 78°
2026-04-17 12:52 49.96013 6.55462 21286 ft 396 kts 78°
2026-04-17 12:53 49.96483 6.59578 21239 ft 376 kts 82°
2026-04-17 12:53 49.96701 6.63535 21195 ft 360 kts 86°
2026-04-17 12:53 49.96984 6.67347 21205 ft 355 kts 78°
2026-04-17 12:53 49.97560 6.71081 21216 ft 356 kts 75°
2026-04-17 12:54 49.98149 6.74822 21223 ft 357 kts 76°
2026-04-17 12:54 49.98691 6.78597 21238 ft 358 kts 77°
2026-04-17 12:54 49.99206 6.82379 21245 ft 358 kts 77°
2026-04-17 12:54 49.99708 6.86173 21242 ft 358 kts 78°
2026-04-17 12:55 50.00208 6.89964 21194 ft 357 kts 77°
2026-04-17 12:55 50.00704 6.93767 21203 ft 359 kts 78°
2026-04-17 12:55 50.01192 6.97530 21211 ft 359 kts 78°
2026-04-17 12:55 50.01684 7.01343 21212 ft 359 kts 78°
2026-04-17 12:56 50.02172 7.05148 21207 ft 359 kts 78°
2026-04-17 12:56 50.02666 7.08977 20961 ft 362 kts 77°
2026-04-17 12:56 50.03165 7.12817 20633 ft 362 kts 77°
2026-04-17 12:56 50.03662 7.16648 20199 ft 362 kts 77°
2026-04-17 12:57 50.04159 7.20480 19737 ft 361 kts 77°
2026-04-17 12:57 50.04654 7.24299 19304 ft 360 kts 77°
2026-04-17 12:57 50.05147 7.28110 18851 ft 359 kts 77°
2026-04-17 12:57 50.05645 7.31918 18390 ft 359 kts 77°
2026-04-17 12:58 50.06126 7.35696 18150 ft 354 kts 78°
2026-04-17 12:58 50.06573 7.39448 17898 ft 353 kts 78°
2026-04-17 12:58 50.07011 7.43216 17650 ft 353 kts 78°
2026-04-17 12:58 50.07449 7.46973 17401 ft 353 kts 78°
2026-04-17 12:59 50.07881 7.50720 17148 ft 351 kts 78°
2026-04-17 12:59 50.08305 7.54412 16898 ft 350 kts 78°
2026-04-17 12:59 50.08735 7.58123 16644 ft 348 kts 78°
2026-04-17 12:59 50.09163 7.61825 16392 ft 346 kts 79°
2026-04-17 13:00 50.09585 7.65507 16138 ft 344 kts 78°
2026-04-17 13:00 50.10007 7.69173 15892 ft 343 kts 78°
2026-04-17 13:00 50.10425 7.72823 15648 ft 341 kts 79°
2026-04-17 13:00 50.10836 7.76454 15386 ft 340 kts 79°
2026-04-17 13:01 50.11242 7.80078 15138 ft 339 kts 79°
2026-04-17 13:01 50.11646 7.83682 14894 ft 337 kts 79°
2026-04-17 13:01 50.12050 7.87276 14646 ft 336 kts 79°
2026-04-17 13:01 50.12451 7.90846 14391 ft 332 kts 79°
2026-04-17 13:02 50.12841 7.94339 14121 ft 322 kts 79°
2026-04-17 13:02 50.13222 7.97744 13874 ft 315 kts 79°
2026-04-17 13:02 50.13594 8.01085 13626 ft 311 kts 79°
2026-04-17 13:02 50.13962 8.04403 13371 ft 310 kts 79°
2026-04-17 13:03 50.14330 8.07704 13189 ft 307 kts 79°
2026-04-17 13:03 50.14691 8.10981 13106 ft 308 kts 79°
2026-04-17 13:03 50.15056 8.14278 12911 ft 310 kts 79°
2026-04-17 13:03 50.15424 8.17595 12625 ft 310 kts 79°
2026-04-17 13:04 50.15783 8.20858 12319 ft 308 kts 79°
2026-04-17 13:04 50.16140 8.24138 12013 ft 305 kts 79°
2026-04-17 13:04 50.16494 8.27389 11703 ft 303 kts 79°
2026-04-17 13:04 50.16847 8.30623 11408 ft 301 kts 80°
2026-04-17 13:05 50.17195 8.33832 11121 ft 300 kts 80°
2026-04-17 13:05 50.17541 8.37031 10824 ft 298 kts 80°
2026-04-17 13:05 50.17883 8.40219 10530 ft 296 kts 80°
2026-04-17 13:05 50.18223 8.43381 10239 ft 295 kts 80°
2026-04-17 13:06 50.18563 8.46527 9950 ft 293 kts 80°
2026-04-17 13:06 50.18900 8.49664 9665 ft 292 kts 81°
2026-04-17 13:06 50.19231 8.52782 9395 ft 290 kts 81°
2026-04-17 13:06 50.19451 8.54834 9208 ft 289 kts 81°
2026-04-17 13:07 50.19783 8.57932 8875 ft 289 kts 81°
2026-04-17 13:07 50.20108 8.61014 8549 ft 287 kts 81°
2026-04-17 13:07 50.20432 8.64080 8238 ft 285 kts 81°
2026-04-17 13:07 50.20755 8.67128 7925 ft 284 kts 81°
2026-04-17 13:08 50.21071 8.70126 7593 ft 274 kts 81°
2026-04-17 13:08 50.21372 8.73000 7265 ft 263 kts 81°
2026-04-17 13:08 50.21659 8.75769 6951 ft 253 kts 81°
2026-04-17 13:08 50.21933 8.78448 6649 ft 246 kts 81°
2026-04-17 13:09 50.22205 8.81046 6368 ft 240 kts 81°
2026-04-17 13:09 50.22360 8.83624 6073 ft 238 kts 97°
2026-04-17 13:09 50.21750 8.85982 5787 ft 237 kts 130°
2026-04-17 13:09 50.20431 8.87452 5537 ft 236 kts 160°
2026-04-17 13:10 50.18859 8.88201 5333 ft 237 kts 163°
2026-04-17 13:10 50.17285 8.88952 5106 ft 236 kts 163°
2026-04-17 13:10 50.15713 8.89695 4849 ft 235 kts 163°
2026-04-17 13:10 50.14136 8.90305 4465 ft 233 kts 177°
2026-04-17 13:11 50.12570 8.89786 4069 ft 233 kts 210°
2026-04-17 13:11 50.11390 8.88210 4115 ft 226 kts 224°
2026-04-17 13:11 50.10346 8.86393 4039 ft 220 kts 240°
2026-04-17 13:11 50.09904 8.84083 3599 ft 216 kts 259°
2026-04-17 13:12 50.09556 8.81939 3412 ft 198 kts 250°
2026-04-17 13:12 50.08576 8.78048 2967 ft 192 kts 251°
2026-04-17 13:12 50.08140 8.76086 2738 ft 191 kts 249°
2026-04-17 13:13 50.07676 8.74159 2470 ft 188 kts 248°
2026-04-17 13:13 50.07268 8.72278 2206 ft 181 kts 256°
2026-04-17 13:13 50.07042 8.70424 2015 ft 166 kts 262°
2026-04-17 13:13 50.06853 8.68704 1720 ft 157 kts 257°
2026-04-17 13:14 50.06563 8.67141 1534 ft 144 kts 250°
2026-04-17 13:14 50.06181 8.65708 1318 ft 142 kts 251°
2026-04-17 13:14 50.05844 8.64261 1115 ft 144 kts 251°
2026-04-17 13:14 50.05490 8.62823 983 ft 141 kts 251°
2026-04-17 13:15 50.05152 8.61391 789 ft 141 kts 251°
2026-04-17 13:15 50.04814 8.59950 615 ft 142 kts 251°
2026-04-17 13:15 50.04462 8.58491 400 ft 145 kts 251°
2026-04-17 13:15 50.04140 8.57122 366 ft 118 kts 250°
2026-04-17 13:16 50.03916 8.56190 353 ft 58 kts 250°
2026-04-17 13:16 50.03890 8.55816 351 ft 16 kts 278°
2026-04-17 13:16 50.03904 8.55684 350 ft 7 kts 279°
2026-04-17 13:16 50.03905 8.55676 350 ft 0 kts 279°
2026-04-17 13:17 50.03906 8.55667 347 ft 4 kts 283°
2026-04-17 13:17 50.03944 8.55634 352 ft 9 kts
2026-04-17 13:18 50.03989 8.55705 348 ft 10 kts 62°
2026-04-17 13:18 50.04018 8.55826 351 ft 14 kts 70°
2026-04-17 13:18 50.04055 8.55980 354 ft 16 kts 69°
2026-04-17 13:18 50.04096 8.56150 359 ft 17 kts 69°
2026-04-17 13:19 50.04140 8.56333 359 ft 19 kts 70°
2026-04-17 13:19 50.04185 8.56524 357 ft 19 kts 69°
2026-04-17 13:19 50.04219 8.56667 362 ft 6 kts 70°
2026-04-17 13:19 50.04227 8.56700 356 ft 0 kts 70°
2026-04-17 13:21 50.04229 8.56707 356 ft 2 kts 70°
2026-04-17 13:22 50.04240 8.56753 359 ft 7 kts 70°
2026-04-17 13:22 50.04279 8.56805 361 ft 10 kts 20°
2026-04-17 13:22 50.04367 8.56835 365 ft 14 kts 10°
2026-04-17 13:22 50.04456 8.56873 365 ft 10 kts 49°
2026-04-17 13:23 50.04433 8.56939 365 ft 8 kts 156°
2026-04-17 13:23 50.04388 8.56966 359 ft 5 kts 159°
2026-04-17 13:23 50.04381 8.56970 359 ft 0 kts 160°